[[{"header":{"parameterUnit":"m.s-1","parameterCategory":1,"la1":30.2991,"la2":30.254,"lo1":-89.0895,"lo2":-89.0444,"dy":0.0017,"dx":0.0017,"nx":28,"ny":28,"refTime":"2024-05-28T21:00:00:Z","depth":0,"parameterNumber":2,"parameterNumberName":"U-component_of_WINDS"},"data":[0,0,0,0,0,0,0,0,0,0,0,0,0,0,0,0,0,0,0,0,0,0,0,0,0,0,0,0,0,0,0,0,0,0,0,0,0,0,0,0,0,0,0,0,0,0,0,0,0,0,0,0,0,0,0,0,0,0,0.9142,0.9142,0,0.915,0.915,0.915,0.9098,0.9097,0.9096,0.9094,0.9106,0.9107,0.9109,0,0,0,0,0,0,0,0,0,0,0,0,0,0.9085,0.9086,0.9142,0.9142,0.9142,0.915,0.915,0.915,0.9099,0.9097,0.9095,0.9093,0.9105,0.9107,0.9109,0,0,0,0,0,0,0,0,0,0,0,0,0,0.9103,0.9087,0.9142,0.9118,0.9115,0.915,0.915,0.915,0.9099,0.9097,0.9095,0.9093,0.9105,0.9107,0.911,0.9169,0,0,0.9117,0.9118,0,0,0,0,0,0,0,0,0.9102,0.9105,0.9121,0.9119,0.9117,0.9121,0.9134,0.9157,0.91,0.9105,0.9094,0.9092,0.9113,0.9115,0.9121,0.917,0.917,0.9117,0.9119,0.912,0.9121,0,0,0,0,0,0,0,0.9101,0.9105,0.9145,0.9121,0.9119,0.9107,0.9107,0.9138,0.9122,0.9105,0.9101,0.9102,0.9111,0.9119,0.9121,0.917,0.9117,0.912,0.9121,0.9122,0.9265,0.9268,0,0,0,0,0,0,0.9103,0.9104,0.9145,0.9146,0.9104,0.911,0.911,0.9122,0.9121,0.9119,0.9104,0.91,0.9115,0.9118,0.9121,0.9188,0.912,0.9122,0.9124,0.9263,0.9266,0.9268,0,0,0,0,0,0,0.9102,0.9107,0.9145,0.9124,0.9128,0.9113,0.9127,0.9123,0.913,0.9121,0.9118,0.9115,0.9114,0.9118,0.9157,0.9188,0.9124,0.9126,0.9261,0.9264,0.9267,0.9325,0,0,0,0,0,0,0.91,0.9107,0.9129,0.9125,0.9129,0.918,0.9129,0.9125,0.9134,0.9129,0.913,0.9128,0.9112,0.9153,0.9159,0.9191,0.9128,0.9258,0.9262,0.9266,0.9321,0.933,0.9339,0,0,0,0,0,0.9098,0.9147,0.913,0.9136,0.9156,0.9182,0.9184,0.9165,0.9137,0.9159,0.9153,0.9128,0.9184,0.9158,0.9164,0.9197,0.9255,0.9261,0.9266,0.9317,0.9329,0.9339,0,0,0,0,0,0,0.9157,0.9146,0.9128,0.9176,0.918,0.9173,0.92,0.9179,0.9192,0.9186,0.9163,0.9163,0.9206,0.9205,0.9176,0.9253,0.9215,0.9222,0.9251,0.9263,0.9272,0.927,0.913,0,0,0,0,0,0.9175,0.9196,0.9185,0.9229,0.9232,0.9216,0.9226,0.921,0.9215,0.9217,0.9213,0.9219,0.9237,0.925,0.9267,0.9321,0.9319,0.9346,0.9355,0.9363,0.9369,0.9394,0.9406,0.9285,0.9285,0.9285,0,0,0.9214,0.921,0.9225,0.924,0.9242,0.9264,0.9218,0.9244,0.926,0.9221,0.9256,0.9254,0.9259,0.9305,0.9325,0.9305,0.9401,0.9369,0.9375,0.9377,0.9401,0.9412,0.9422,0.9289,0.9288,0.9288,0,0,0.9294,0.9295,0.9329,0.9331,0.9333,0.9321,0.933,0.9326,0.9322,0.9357,0.9327,0.9347,0.938,0.9384,0.939,0.947,0.9447,0.9477,0.9524,0.955,0.9559,0.9567,0.9594,0.9604,0.9483,0.9483,0.9483,0,0.9342,0.9374,0.935,0.9377,0.9384,0.9348,0.9383,0.9386,0.9394,0.94,0.9378,0.9417,0.9418,0.9463,0.9482,0.9489,0.9497,0.9476,0.9559,0.9567,0.9575,0.96,0.961,0.9486,0.9486,0.9485,0.9485,0,0.9431,0.9453,0.9482,0.9487,0.9498,0.9529,0.951,0.9524,0.9507,0.9498,0.9533,0.9533,0.9548,0.9558,0.9543,0.96,0.9588,0.9563,0.9524,0.959,0.9613,0.9623,0.9491,0.949,0.9489,0.9488,0,0,0.955,0.9541,0.9551,0.9553,0.9551,0.9568,0.9597,0.961,0.9621,0.9628,0.9651,0.9679,0.9655,0.9662,0.9647,0.967,0.973,0.9642,0.9642,0.9657,0.9791,0.9809,0.982,0.9715,0.9717,0.9718,0.979,0,0.9627,0.9674,0.9653,0.9703,0.9722,0.9687,0.9712,0.9714,0.9706,0.9722,0.9714,0.9733,0.9701,0.9705,0.9726,0.9718,0.9757,0.9713,0.9736,0.9737,0.9734,0.9833,0.9852,0.992,0.9799,0.9801,0.9802,0,0.9724,0.9731,0.9783,0.9775,0.9782,0.9805,0.9814,0.9829,0.983,0.9823,0.983,0.9809,0.9837,0.9799,0.9836,0.9807,0.9815,0.9812,0.9815,0.9815,0.9773,0.9834,0.9941,0.9951,0.9816,0.9815,0.9814,0,0.9803,0.9826,0.9859,0.9861,0.9854,0.9871,0.9869,0.9867,0.9876,0.9884,0.9889,0.9901,0.9907,0.9917,0.99,0.9874,0.9939,0.99,0.9933,0.9934,0.9948,0.9947,1.0056,0.9956,0.9956,0.9956,0.9955,0,0.989,0.9922,0.9894,0.9914,0.9949,0.9924,0.9959,0.9954,0.9952,0.9971,0.9942,0.996,0.9937,0.9953,0.994,0.9972,0.9976,0.997,0.9966,0.9972,0.9972,0.9976,0.997,0.9958,0.9958,0.9957,0.9957,0,0.9984,0.9966,0.9999,0.9989,0.9987,1.0012,1.0004,1.0022,1.0011,1.0035,1.0039,1.0023,1.004,1.0024,1.0041,1.0032,1.0074,1.0064,1.0073,1.0069,1.0102,1.0099,1.0216,1.023,1.0123,1.0124,1.0125,0,1.004,1.0063,1.0055,1.0064,1.0063,1.0079,1.0086,1.0063,1.0072,1.0074,1.0091,1.0105,1.0115,1.0144,1.0134,1.0147,1.0136,1.0176,1.0137,1.0142,1.0134,1.0132,1.0134,1.0184,1.0185,1.0186,1.0187,0,1.0141,1.013,1.0142,1.0149,1.0158,1.0164,1.0167,1.0177,1.0152,1.0164,1.018,1.0187,1.0203,1.0217,1.0225,1.0224,1.0201,1.0199,1.0207,1.0212,1.0216,1.0212,1.0092,1.0196,1.0195,1.0195,1.0194,1.0194,1.0217,1.0235,1.023,1.0243,1.0242,1.0246,1.0261,1.0252,1.0264,1.0273,1.0259,1.0279,1.0277,1.0286,1.0287,1.0302,1.0285,1.0298,1.03,1.0303,1.0307,1.0214,1.0304,1.0304,1.0304,1.0303,1.0303,0,1.0314,1.0309,1.0321,1.0325,1.0335,1.0311,1.0313,1.0323,1.0339,1.034,1.0349,1.0367,1.0379,1.037,1.0381,1.0394,1.0384,1.0398,1.0396,1.0396,1.0323,1.0314,1.0406,1.0406,1.0406,1.0406,1.0406,1.0406,1.0366,1.0395,1.0383,1.0411,1.0406,1.0423,1.0426,1.0428,1.0428,1.0448,1.0458,1.0451,1.0447,1.0457,1.0467,1.0464,1.0469,1.0486,1.0479,1.0411,1.0401,1.0391,1.0383,1.0488,1.0488,1.0551,1.0551,1.0552]},{"header":{"parameterUnit":"m.s-1","parameterCategory":1,"la1":30.2991,"la2":30.254,"lo1":-89.0895,"lo2":-89.0444,"dy":0.0017,"dx":0.0017,"nx":28,"ny":28,"refTime":"2024-05-28T21:00:00:Z","depth":0,"parameterNumber":3,"parameterNumberName":"V-component_of_WINDS"},"data":[0,0,0,0,0,0,0,0,0,0,0,0,0,0,0,0,0,0,0,0,0,0,0,0,0,0,0,0,0,0,0,0,0,0,0,0,0,0,0,0,0,0,0,0,0,0,0,0,0,0,0,0,0,0,0,0,0,0,0.4077,0.4077,0,0.41,0.41,0.4101,0.4101,0.4101,0.41,0.41,0.4122,0.4123,0.4124,0,0,0,0,0,0,0,0,0,0,0,0,0,0.4031,0.4032,0.4077,0.4077,0.4078,0.41,0.41,0.4101,0.4101,0.4101,0.41,0.41,0.4122,0.4123,0.4124,0,0,0,0,0,0,0,0,0,0,0,0,0,0.4052,0.4033,0.4077,0.4081,0.4081,0.41,0.41,0.4101,0.4101,0.4101,0.41,0.41,0.4121,0.4123,0.4124,0.414,0,0,0.4128,0.4128,0,0,0,0,0,0,0,0,0.4051,0.4054,0.408,0.408,0.4081,0.4097,0.4092,0.4114,0.4101,0.4093,0.41,0.41,0.4114,0.4116,0.4121,0.4141,0.4142,0.4128,0.4129,0.4129,0.413,0,0,0,0,0,0,0,0.405,0.4053,0.4086,0.408,0.4081,0.408,0.4083,0.4096,0.4106,0.4094,0.4094,0.4097,0.4114,0.412,0.4122,0.4143,0.4128,0.4129,0.413,0.413,0.4176,0.4176,0,0,0,0,0,0,0.4048,0.4052,0.4085,0.4087,0.4065,0.4081,0.4084,0.4092,0.4106,0.4107,0.4097,0.4097,0.4118,0.412,0.4122,0.4141,0.4129,0.413,0.4131,0.4176,0.4176,0.4177,0,0,0,0,0,0,0.4047,0.4051,0.4085,0.4069,0.4074,0.4083,0.4092,0.4093,0.4099,0.4108,0.411,0.4101,0.4118,0.4121,0.4136,0.4142,0.4131,0.4132,0.4175,0.4176,0.4176,0.418,0,0,0,0,0,0,0.4046,0.4051,0.4058,0.407,0.4075,0.4098,0.4092,0.4094,0.4101,0.4101,0.4112,0.4114,0.4118,0.4134,0.4137,0.4144,0.4133,0.4174,0.4175,0.4176,0.418,0.4181,0.4182,0,0,0,0,0,0.4044,0.4058,0.4058,0.4062,0.4084,0.4099,0.4101,0.4106,0.4102,0.4108,0.4114,0.4113,0.4141,0.4135,0.4139,0.4146,0.4174,0.4175,0.4176,0.4179,0.4181,0.4182,0,0,0,0,0,0,0.4046,0.406,0.406,0.4078,0.4087,0.4099,0.4107,0.4108,0.4118,0.4117,0.4121,0.4124,0.4139,0.4144,0.4137,0.4162,0.4157,0.4159,0.4158,0.416,0.4161,0.4159,0.4134,0,0,0,0,0,0.4049,0.4061,0.4071,0.4086,0.4091,0.4098,0.4105,0.4108,0.4117,0.4121,0.4128,0.4136,0.4147,0.4154,0.4164,0.4181,0.4182,0.4187,0.4189,0.419,0.4191,0.4199,0.4201,0.418,0.418,0.418,0,0,0.4055,0.4063,0.407,0.4087,0.4095,0.4106,0.4102,0.4114,0.4122,0.4122,0.4137,0.4142,0.4152,0.4168,0.4175,0.4173,0.4197,0.4191,0.4192,0.4192,0.42,0.4202,0.4204,0.4181,0.418,0.418,0,0,0.407,0.4079,0.4091,0.4099,0.411,0.4114,0.4117,0.4128,0.4132,0.4147,0.4147,0.4156,0.4174,0.4181,0.4187,0.4204,0.4203,0.4207,0.4214,0.4221,0.4223,0.4224,0.4229,0.4231,0.4208,0.4208,0.4208,0,0.4076,0.4093,0.4098,0.411,0.4117,0.4118,0.413,0.4137,0.415,0.4155,0.4152,0.4174,0.4181,0.4197,0.4201,0.4206,0.4209,0.4205,0.4222,0.4224,0.4225,0.423,0.4232,0.4208,0.4208,0.4208,0.4208,0,0.4099,0.4111,0.4119,0.4133,0.414,0.4153,0.4158,0.4165,0.4167,0.4171,0.4185,0.4193,0.4205,0.4209,0.4211,0.4225,0.4223,0.4221,0.4216,0.4227,0.4232,0.4234,0.4209,0.4209,0.4209,0.4209,0,0,0.4117,0.4132,0.4135,0.414,0.4152,0.4161,0.4173,0.4184,0.4189,0.4199,0.4208,0.4223,0.4221,0.4227,0.4229,0.4236,0.4247,0.4233,0.4233,0.4235,0.4263,0.4264,0.4266,0.4247,0.4247,0.4248,0.4262,0,0.4133,0.4155,0.4158,0.4176,0.4187,0.4187,0.4197,0.4205,0.4209,0.4218,0.4222,0.4232,0.4229,0.4233,0.424,0.4245,0.4253,0.4244,0.4255,0.4255,0.4252,0.4268,0.427,0.4282,0.4263,0.4264,0.4264,0,0.4155,0.4165,0.4184,0.4193,0.4198,0.4207,0.4216,0.4225,0.4233,0.4236,0.4243,0.4244,0.4255,0.4249,0.4264,0.4257,0.4262,0.4265,0.4265,0.4266,0.426,0.4269,0.4287,0.4288,0.4267,0.4267,0.4267,0,0.4166,0.4183,0.4197,0.4201,0.4213,0.4219,0.4223,0.4231,0.4237,0.4246,0.425,0.4259,0.4264,0.4271,0.4275,0.427,0.4288,0.4284,0.429,0.429,0.4294,0.4293,0.4312,0.4298,0.4298,0.4297,0.4297,0,0.4183,0.4195,0.4201,0.4209,0.4222,0.4225,0.4237,0.4242,0.4249,0.4257,0.4258,0.4266,0.427,0.4278,0.4281,0.4292,0.4294,0.4296,0.4296,0.4295,0.4295,0.4298,0.4297,0.4298,0.4298,0.4298,0.4298,0,0.4197,0.4202,0.4216,0.4225,0.4228,0.4236,0.4244,0.4251,0.4255,0.4266,0.4268,0.4274,0.4284,0.4288,0.4299,0.4301,0.4313,0.4313,0.431,0.431,0.4316,0.4316,0.4337,0.434,0.4324,0.4325,0.4325,0,0.4207,0.4216,0.4226,0.4232,0.4237,0.4246,0.4252,0.4256,0.4262,0.4271,0.4277,0.4287,0.4294,0.4309,0.4314,0.4323,0.4323,0.4329,0.4324,0.4322,0.4322,0.4321,0.4321,0.433,0.4331,0.4331,0.4331,0,0.4225,0.4227,0.4236,0.4245,0.4252,0.426,0.4267,0.4272,0.4277,0.4283,0.4293,0.4299,0.431,0.4319,0.4328,0.4332,0.4332,0.4332,0.4334,0.4333,0.4331,0.4331,0.4313,0.4332,0.4332,0.4332,0.4332,0.4332,0.4237,0.4244,0.4252,0.4262,0.4267,0.4274,0.4281,0.4286,0.4294,0.4304,0.4305,0.4315,0.4322,0.4333,0.4338,0.4345,0.4343,0.4346,0.4347,0.4347,0.4347,0.433,0.4347,0.4347,0.4347,0.4347,0.4347,0,0.4254,0.4259,0.4268,0.4278,0.4285,0.4284,0.4292,0.4298,0.4307,0.4313,0.4321,0.4331,0.434,0.4345,0.4353,0.4358,0.4358,0.436,0.4359,0.436,0.4349,0.4346,0.436,0.436,0.436,0.436,0.436,0.436,0.4264,0.4276,0.4278,0.4293,0.4297,0.4307,0.4312,0.4317,0.4322,0.4334,0.4341,0.4344,0.435,0.4359,0.4366,0.4367,0.437,0.4372,0.4373,0.4362,0.4361,0.436,0.4357,0.4373,0.4373,0.4383,0.4383,0.4383]}]]